Change the Weather History Date:

Wednesday, November 14, 2012

  Actual Average Record
Temperature  
Mean Temperature 58 °F 56 °F  
Max Temperature 70 °F 66 °F 80 °F (2010)
Min Temperature 45 °F 48 °F 36 °F (2000)
Degree Days  
Heating Degree Days 7    
Month to date heating degree days 102  
Since 1 July heating degree days 213  
Cooling Degree Days 0    
Month to date cooling degree days 6  
Year to date cooling degree days 321  
Growing Degree Days 8 (Base 50)    
Moisture  
Dew Point 44 °F    
Average Humidity 63    
Maximum Humidity 86    
Minimum Humidity 40    
Precipitation  
Precipitation 0.00 in 0.05 in 1.16 in (1972)
Month to date precipitation 0.30 0.69  
Year to date precipitation 6.50 11.17  
Since 1 July precipitation 0.99 1.54  
Sea Level Pressure  
Sea Level Pressure 30.08 in    
Wind  
Wind Speed 2 mph (NW)    
Max Wind Speed 10 mph    
Max Gust Speed 12 mph    
Visibility 10 miles    
Events      
T = Trace of Precipitation, MM = Missing Value Source: NWS Daily Summary

Daily Weather History Graph

Daily Weather History Graph

Search for Another Location

Airport or City:

Trip Planner

Search our weather history database for the weather conditions in past years. The results will help you decide how hot, cold, wet, or windy it might be!

Date:

Astronomy

Nov. 14, 2012 Rise Set
Actual Time 6:47 AM PST 4:57 PM PST
Civil Twilight 6:19 AM PST 5:25 PM PST
Nautical Twilight 5:47 AM PST 5:57 PM PST
Astronomical Twilight 5:16 AM PST 6:28 PM PST
Moon 7:41 AM PST (11/14) 5:53 PM PST (11/14)
Length of Visible Light 11h 06m
Length of Day
10h 10m
New Moon, 1% of the Moon is Illuminated
Nov 14
New Moon
Nov 20
First Quarter
Nov 28
Full
Dec 6
Last Quarter
Dec 13
New

Hourly Weather History & Observations

Time (PST) Temp. Dew Point Humidity Pressure Visibility Wind Dir Wind Speed Gust Speed Precip Events Conditions
12:56 AM 51.1 °F 43.0 °F 74% 30.13 in 10.0 mi Calm Calm - N/A   Clear
1:56 AM 54.0 °F 42.1 °F 64% 30.13 in 10.0 mi NNW 9.2 mph - N/A   Clear
2:56 AM 48.9 °F 42.1 °F 77% 30.14 in 10.0 mi Calm Calm - N/A   Clear
3:56 AM 48.0 °F 43.0 °F 83% 30.12 in 10.0 mi Calm Calm - N/A   Clear
4:56 AM 48.0 °F 43.0 °F 83% 30.11 in 10.0 mi Calm Calm - N/A   Clear
5:56 AM 46.9 °F 42.1 °F 83% 30.13 in 10.0 mi Calm Calm - N/A   Clear
6:56 AM 48.9 °F 41.0 °F 74% 30.13 in 10.0 mi Calm Calm - N/A   Clear
7:56 AM 51.1 °F 44.1 °F 77% 30.14 in 10.0 mi Calm Calm - N/A   Clear
8:56 AM 55.9 °F 44.1 °F 64% 30.13 in 10.0 mi NE 4.6 mph - N/A   Clear
9:56 AM 57.9 °F 42.1 °F 56% 30.12 in 10.0 mi Calm Calm - N/A   Clear
10:56 AM 59.0 °F 44.1 °F 58% 30.12 in - NNW 4.6 mph - N/A   Clear
11:56 AM 64.9 °F 42.1 °F 43% 30.10 in 10.0 mi North - - N/A   Unknown
12:56 PM 66.9 °F 44.1 °F 44% 30.08 in 10.0 mi WNW 3.5 mph - N/A   Clear
1:56 PM 69.1 °F 44.1 °F 40% 30.06 in 10.0 mi North 3.5 mph - N/A   Clear
2:56 PM 69.1 °F 44.1 °F 40% 30.04 in 10.0 mi NNW 3.5 mph - N/A   Clear
3:56 PM 70.0 °F 44.1 °F 39% 30.04 in 10.0 mi Calm Calm - N/A   Clear
4:56 PM 66.9 °F 44.1 °F 44% 30.03 in 10.0 mi Calm Calm - 0.00 in   Clear
5:56 PM 63.0 °F 44.1 °F 50% 30.04 in 10.0 mi Calm Calm - N/A   Clear
6:56 PM 61.0 °F 46.9 °F 60% 30.05 in 10.0 mi West 3.5 mph - N/A   Clear
7:56 PM 57.9 °F 46.0 °F 65% 30.04 in 10.0 mi Calm Calm - N/A   Clear
8:56 PM 57.0 °F 45.0 °F 64% 30.04 in 10.0 mi Calm Calm - N/A   Clear
9:56 PM 55.9 °F 45.0 °F 67% 30.04 in 10.0 mi WSW 3.5 mph - N/A   Clear
10:56 PM 54.0 °F 45.0 °F 72% 30.04 in 10.0 mi WSW 3.5 mph - N/A   Clear
11:56 PM 52.0 °F 45.0 °F 77% 30.04 in 10.0 mi Calm Calm - N/A   Clear